Dallas Addison, TX

9:38 PM CST on December 08, 2019 (GMT -0600)
Addison

Weather History for KADS - November, 2019

Change the Weather History Date:

Saturday, November 16, 2019

  Actual Average Record
Temperature  
Mean Temperature 51 °F -  
Max Temperature 62 °F 63 °F 129 °F (2018)
Min Temperature 40 °F 48 °F 28 °F (1997)
Degree Days  
Heating Degree Days 14    
Growing Degree Days 1 (Base 50)    
Moisture  
Dew Point 33 °F    
Average Humidity 54    
Maximum Humidity 72    
Minimum Humidity 34    
Precipitation  
Precipitation 0.00 in - - ()
Sea Level Pressure  
Sea Level Pressure 30.18 in    
Wind  
Wind Speed 4 mph ()    
Max Wind Speed 12 mph    
Max Gust Speed 17 mph    
Visibility 8.0 miles    
Events      
Averages and records for this station are not official NWS values.
T = Trace of Precipitation, MM = Missing Value Source: Averaged Metar Reports

Daily Weather History Graph

Daily Weather History Graph

Search for Another Location

Airport or City:

Astronomy

Nov. 16, 2019 Rise Set
Actual Time 6:58 AM CST 5:25 PM CST
Civil Twilight 6:32 AM CST 5:51 PM CST
Nautical Twilight 6:02 AM CST 6:21 PM CST
Astronomical Twilight 5:33 AM CST 6:50 PM CST
Moon 9:04 PM CST (11/16) 10:48 AM CST (11/16)
Length of Visible Light 11h 19m
Length of Day
10h 26m
Waning Gibbous, 82% of the Moon is Illuminated
Nov 16
Waning Gibbous
Nov 19
Last Quarter
Nov 26
New
Dec 4
First Quarter
Dec 11
Full

Hourly Weather History & Observations

Time (CST) Temp. Windchill Dew Point Humidity Pressure Visibility Wind Dir Wind Speed Gust Speed Precip Events Conditions
12:15 AM 40.3 °F - 32.0 °F 72% 30.30 in 10.0 mi Calm Calm - N/A   Clear
12:35 AM 41.7 °F - 32.2 °F 69% 30.29 in 10.0 mi Calm Calm - N/A   Clear
12:55 AM 40.3 °F 37.1 °F 31.8 °F 72% 30.29 in 3.0 mi ESE 4.6 mph - N/A   Haze
1:15 AM 40.3 °F 38.2 °F 31.8 °F 72% 30.29 in 2.0 mi ESE 3.5 mph - N/A   Haze
1:35 AM 41.4 °F 39.4 °F 31.5 °F 68% 30.28 in 0.5 mi ESE 3.5 mph - N/A   Haze
1:55 AM 43.9 °F 41.3 °F 31.1 °F 61% 30.28 in 0.8 mi ESE 4.6 mph - N/A   Haze
2:15 AM 41.2 °F 39.2 °F 31.1 °F 67% 30.27 in 0.5 mi ESE 3.5 mph - N/A   Haze
2:35 AM 41.5 °F - 30.9 °F 66% 30.27 in 0.5 mi Calm Calm - N/A   Haze
2:55 AM 42.8 °F 41.1 °F 30.4 °F 62% 30.27 in 0.5 mi ESE 3.5 mph - N/A   Haze
3:15 AM 42.1 °F 40.2 °F 30.7 °F 64% 30.27 in 0.5 mi ESE 3.5 mph - N/A   Haze
3:35 AM 42.4 °F 40.7 °F 30.7 °F 63% 30.27 in 0.5 mi ESE 3.5 mph - N/A   Haze
5:47 AM 42.8 °F 38.6 °F 32.0 °F 66% 30.24 in 10.0 mi ESE 6.9 mph - N/A   Clear
6:47 AM 41.0 °F 37.1 °F 32.0 °F 70% 30.26 in 10.0 mi SE 5.8 mph - N/A   Clear
7:47 AM 42.8 °F 39.3 °F 33.8 °F 70% 30.27 in 10.0 mi ESE 5.8 mph - N/A   Clear
8:47 AM 48.2 °F - 35.6 °F 62% 30.28 in 10.0 mi South 6.9 mph - N/A   Clear
9:47 AM 53.6 °F - 35.6 °F 51% 30.27 in 10.0 mi SSE 10.4 mph - N/A   Clear
10:47 AM 55.4 °F - 32.0 °F 41% 30.25 in 10.0 mi South 9.2 mph 17.3 mph N/A   Clear
11:48 AM 57.2 °F - 35.6 °F 44% 30.22 in 10.0 mi South 8.1 mph - N/A   Clear
12:47 PM 59.0 °F - 35.6 °F 42% 30.18 in 10.0 mi SSE 4.6 mph - N/A   Clear
1:47 PM 60.8 °F - 33.8 °F 36% 30.14 in 10.0 mi ESE 4.6 mph - N/A   Clear
2:47 PM 62.6 °F - 33.8 °F 34% 30.12 in 10.0 mi SE 9.2 mph - N/A   Clear
3:47 PM 60.8 °F - 32.0 °F 34% 30.11 in 10.0 mi SE 5.8 mph - N/A   Clear
4:47 PM 59.0 °F - 32.0 °F 36% 30.10 in 10.0 mi SE 6.9 mph - N/A   Clear
6:47 PM 55.4 °F - 32.0 °F 41% 30.09 in 10.0 mi ESE 10.4 mph - N/A   Clear
7:47 PM 53.6 °F - 30.2 °F 41% 30.09 in 10.0 mi SE 11.5 mph - N/A   Clear
8:15 PM 52.9 °F - 32.0 °F 45% 30.10 in 10.0 mi SSE 8.1 mph - N/A   Clear
8:35 PM 52.9 °F - 32.2 °F 45% 30.10 in 10.0 mi South 6.9 mph - N/A   Clear
8:47 PM 53.6 °F - 32.0 °F 44% 30.09 in 13.0 mi SSE 11.5 mph - N/A   Clear
8:55 PM 51.8 °F - 32.9 °F 49% 30.09 in 10.0 mi SSE 8.1 mph - N/A   Clear
9:15 PM 52.5 °F - 32.9 °F 47% 30.09 in 10.0 mi ESE 8.1 mph - N/A   Clear
9:35 PM 50.4 °F - 32.5 °F 50% 30.11 in 10.0 mi SE 3.5 mph - N/A   Clear
9:47 PM 51.8 °F - 32.0 °F 47% 30.09 in 10.0 mi SE 5.8 mph - N/A   Clear
9:55 PM 49.3 °F - 33.1 °F 54% 30.10 in 10.0 mi SSE 6.9 mph - N/A   Clear
10:15 PM 48.7 °F - 33.3 °F 55% 30.10 in 10.0 mi Calm Calm - N/A   Clear
10:35 PM 48.4 °F - 33.1 °F 56% 30.09 in 10.0 mi SE 5.8 mph - N/A   Clear
10:55 PM 48.2 °F - 33.1 °F 56% 30.09 in 10.0 mi SE 5.8 mph - N/A   Clear
11:15 PM 48.7 °F - 32.9 °F 54% 30.08 in 10.0 mi SE 8.1 mph - N/A   Clear
11:35 PM 47.5 °F - 32.9 °F 57% 30.08 in 10.0 mi SE 8.1 mph - N/A   Clear
11:55 PM 47.5 °F - 33.1 °F 57% 30.08 in 10.0 mi SSE 5.8 mph - N/A   Clear